Wind_Speed
2 4 5 4 2 1 1 1 1 1 1 2 2 2 3 4 4 4 3 3 3 2 2 4 5 5 3 2 2 4 7 8 9 9 11 14 16 12 13 16 14 8 6 6 5 5 5 5 5 5 6 6 6 7 6 6 6 6 6 6 6 6 6 6 7 9 9 8 8 9 9 9 10 10 10 11 13 16 19 19 17 16 14 14 16
3 3 4 3 1 1 1 1 1 1 1 2 3 3 3 4 5 4 3 3 2 2 2 3 3 3 2 2 2 4 8 9 9 10 13 16 16 13 12 14 12 8 6 6 5 5 5 6 6 6 6 7 7 7 7 7 7 7 7 8 7 7 8 9 10 11 11 10 10 11 10 10 10 10 11 13 14 17 22 24 22 19 17 16 16
3 3 3 3 1 1 1 1 1 2 2 2 2 3 3 5 6 4 3 2 2 2 2 2 1 2 3 4 4 5 8 9 10 11 14 18 16 13 11 11 10 8 6 6 6 6 6 7 7 7 7 8 8 8 8 8 9 9 9 9 9 10 10 11 12 13 14 14 12 12 12 11 12 12 13 14 15 17 19 21 20 19 18 17 16
3 3 4 3 1 1 2 2 1 2 2 3 3 3 4 6 7 5 3 2 2 2 1 1 3 4 4 5 5 6 9 10 10 12 14 16 14 11 11 10 8 8 7 7 7 7 7 7 8 8 8 9 9 9 9 9 10 10 11 10 10 11 12 12 12 14 16 17 15 14 14 14 13 13 12 13 13 13 13 13 15 16 17 18 17
3 4 5 4 3 3 3 3 3 3 3 2 3 4 4 5 6 4 2 1 1 1 2 3 4 4 3 3 4 7 9 9 11 14 14 13 11 9 10 10 8 8 8 8 8 8 8 8 9 9 9 9 9 9 8 9 10 11 11 12 12 13 14 14 14 15 16 18 18 17 15 14 13 12 11 11 10 11 11 11 12 13 15 17 17
6 6 6 7 6 5 5 4 3 3 3 2 4 4 4 5 5 3 1 1 1 2 3 4 3 3 2 3 4 6 8 9 14 16 12 10 10 9 9 9 9 8 8 9 8 8 8 8 8 9 8 8 8 8 9 10 12 12 13 14 14 14 15 14 14 15 16 17 17 16 14 12 11 11 9 8 7 8 8 9 10 10 12 14 16
8 7 7 8 8 7 6 6 5 4 5 5 5 5 5 5 5 3 2 2 1 2 3 3 3 2 3 4 5 8 9 11 14 13 11 11 11 10 10 11 11 10 10 10 9 8 8 8 8 8 7 7 7 8 10 12 13 13 13 13 13 13 13 13 13 13 14 14 14 13 12 11 9 9 7 6 7 6 6 6 7 9 10 11 13
8 8 7 7 8 7 7 7 7 6 6 5 5 5 4 4 4 4 2 2 1 1 2 2 2 2 4 5 6 8 9 8 9 10 10 11 11 11 12 12 12 12 11 10 9 9 9 7 6 7 8 9 10 11 12 12 12 12 12 12 12 11 10 11 11 11 10 11 11 10 10 9 8 8 8 7 7 7 6 5 6 7 9 10 11
8 8 7 6 7 7 8 9 10 9 8 7 6 4 3 3 4 3 2 2 1 0 1 1 1 2 3 5 6 6 6 7 8 9 10 12 12 12 13 13 13 12 12 11 10 10 9 7 7 10 11 11 12 12 11 11 11 11 10 11 11 10 10 10 10 10 9 9 10 9 8 8 8 7 8 8 8 8 7 6 6 7 8 9 10
7 8 8 7 8 9 10 11 11 11 10 9 6 4 2 3 3 2 1 2 2 1 1 2 2 2 4 6 6 5 5 7 9 10 11 13 13 13 13 12 12 12 12 11 10 9 9 7 8 12 12 11 10 10 10 10 10 10 10 11 11 11 11 11 9 9 10 10 9 9 9 10 9 7 7 8 8 9 8 7 7 7 7 7 8
9 9 9 10 10 10 11 12 12 12 11 10 7 5 3 3 3 2 1 2 2 1 2 2 3 3 5 7 6 4 5 7 9 11 13 14 13 12 11 10 10 11 10 9 8 8 8 7 7 8 9 10 11 10 11 11 11 11 11 10 11 10 10 10 10 10 11 10 10 10 10 11 10 9 9 9 8 9 8 8 8 7 7 7 7
10 10 11 11 11 11 12 14 14 13 12 11 9 7 5 3 3 2 2 3 2 0 1 2 2 2 5 7 4 3 6 8 9 12 13 13 12 10 9 10 11 10 10 8 8 9 8 7 7 7 8 11 12 11 11 12 12 12 11 10 10 9 8 10 10 10 11 11 11 11 10 11 11 9 10 11 11 10 9 9 9 9 8 7 7
10 10 11 11 11 11 12 13 15 15 14 12 10 9 7 4 2 2 3 3 2 1 0 2 1 2 5 5 4 2 6 8 10 11 12 14 13 11 9 11 11 11 11 9 9 9 8 8 9 9 9 11 13 13 13 14 13 12 11 11 11 10 9 10 10 10 10 11 12 12 11 13 13 12 12 13 14 14 12 12 12 11 9 9 8
8 8 9 9 9 9 9 10 12 13 13 12 11 10 7 3 2 3 4 4 2 2 1 1 1 4 5 3 4 2 7 8 9 11 13 15 15 11 9 10 10 11 11 9 9 9 9 10 11 11 11 12 14 14 14 14 13 11 11 11 11 10 10 10 9 10 10 10 11 13 13 13 14 14 15 16 15 14 13 13 13 12 10 10 11
6 6 7 7 7 7 8 9 10 10 11 11 10 8 5 3 3 4 4 4 3 3 3 2 3 5 4 3 3 2 7 8 10 12 15 17 15 12 10 10 10 11 10 9 9 9 10 12 13 12 12 14 14 13 14 15 13 12 11 10 10 10 10 10 9 9 10 10 11 13 13 14 15 15 15 15 15 14 13 13 12 12 12 12 13
5 5 6 6 6 7 7 6 7 7 8 7 6 5 4 4 4 4 4 4 4 4 4 2 2 3 3 4 2 2 7 10 12 14 17 18 15 11 9 10 10 11 10 9 9 10 11 12 13 12 13 14 13 13 15 16 14 12 11 10 10 10 9 10 10 10 10 10 11 12 13 13 13 13 13 12 12 12 11 12 11 10 11 12 12
3 3 4 4 5 6 5 4 3 3 4 4 5 5 5 5 4 4 4 5 5 5 4 2 0 2 3 3 2 1 7 12 14 15 18 19 14 10 9 10 11 11 10 9 9 10 12 12 12 11 12 13 14 13 15 16 14 13 13 12 12 11 10 10 11 11 12 12 11 11 11 10 10 10 10 9 9 9 8 8 8 8 10 12 13
2 2 3 4 4 3 3 2 3 3 4 5 6 6 5 5 5 4 4 5 5 5 4 2 1 3 3 3 3 1 5 12 16 16 18 19 15 10 9 10 11 11 10 10 9 9 11 12 11 10 11 14 15 14 15 17 15 13 13 13 12 11 10 11 12 13 13 11 9 8 8 10 9 8 7 6 6 6 6 6 6 7 8 9 10
2 2 3 3 2 2 1 2 3 4 5 6 7 7 6 5 4 4 5 5 5 4 3 1 2 3 2 5 7 5 4 9 15 17 17 18 16 12 10 10 11 11 10 10 10 9 9 10 11 11 12 14 14 14 16 16 14 13 13 13 11 10 11 12 12 14 14 11 8 6 7 8 8 7 6 5 4 5 5 4 5 6 7 6 6
2 3 3 2 1 1 1 3 3 4 5 6 7 8 6 5 4 4 5 6 5 4 3 2 2 2 2 6 7 7 6 9 14 16 17 17 16 13 11 9 10 10 10 10 11 9 8 9 11 13 14 13 13 16 16 14 14 14 14 12 12 12 12 12 12 13 12 10 7 5 7 7 6 6 6 4 3 3 2 2 4 6 6 4 5
3 3 1 1 2 2 2 5 5 4 5 6 7 7 6 5 5 5 6 7 6 5 5 3 2 1 4 6 6 7 9 10 13 16 17 17 17 14 12 11 11 11 9 9 11 10 9 10 11 13 14 14 14 16 16 14 15 15 13 12 12 12 11 12 12 11 10 9 7 5 7 7 6 6 5 4 3 3 3 3 4 5 5 4 4
2 1 1 3 4 3 4 6 7 6 6 7 7 6 7 7 7 7 8 8 7 7 6 4 2 1 5 6 6 8 11 11 13 15 16 17 17 14 12 12 13 13 10 9 10 10 9 9 10 12 14 15 15 15 14 15 16 14 12 12 11 10 10 11 12 10 9 9 7 6 6 7 6 6 6 4 3 4 3 3 4 4 3 3 3
1 1 3 4 4 4 5 7 8 7 6 7 7 8 9 9 8 8 8 8 7 6 6 4 1 1 4 5 5 7 9 9 12 14 16 17 16 14 13 13 14 15 11 8 9 10 9 8 9 11 14 16 15 14 14 16 16 12 10 11 11 10 11 11 11 9 7 8 8 8 8 9 8 7 6 5 4 4 4 4 3 2 2 1 2
1 2 3 4 4 4 5 6 7 7 6 7 8 10 11 9 8 7 7 6 5 4 4 3 2 2 5 6 5 5 7 9 11 13 15 15 14 14 14 13 15 16 12 7 8 11 9 8 9 12 14 15 14 14 14 17 18 13 9 10 11 10 10 11 12 10 9 9 9 8 9 11 8 6 6 7 6 5 6 5 2 1 2 2 2
0 1 3 4 4 4 4 5 7 7 6 8 10 12 10 7 6 5 5 5 4 3 2 2 3 4 6 6 5 6 9 11 11 13 15 14 14 15 16 15 15 16 13 10 12 12 9 9 11 13 13 15 15 14 13 17 20 16 12 10 9 8 9 11 12 12 11 10 10 9 10 11 8 8 9 9 8 8 7 6 6 5 5 5 4
1 1 2 3 4 4 3 5 6 6 6 7 10 11 8 5 4 3 4 2 1 2 2 3 4 5 6 5 4 7 10 10 10 12 14 12 11 14 18 18 17 15 14 13 13 12 10 10 11 12 12 13 14 13 12 15 17 15 11 10 8 7 9 12 13 12 11 10 9 10 10 10 10 11 12 11 10 10 8 8 8 7 7 7 6
1 1 2 2 3 4 4 4 5 5 5 7 8 8 7 5 2 1 1 1 2 3 4 5 5 5 5 5 4 6 7 6 7 10 11 9 8 10 14 17 16 14 14 12 9 9 10 10 10 12 12 12 11 12 11 12 12 11 9 9 8 7 8 11 12 12 10 9 8 8 9 10 10 11 11 10 10 10 10 9 9 8 7 6 6
1 2 2 2 3 3 3 3 4 4 5 7 8 8 7 5 3 2 1 1 2 3 4 5 5 5 5 4 4 3 3 3 6 9 9 9 10 10 12 15 15 14 16 12 7 6 8 9 9 12 12 10 9 10 11 11 11 10 8 8 8 8 7 8 10 11 10 8 6 6 7 8 9 9 9 9 10 10 10 9 8 8 7 7 8
2 1 3 3 3 4 3 3 4 5 6 8 10 10 9 6 5 4 3 0 2 4 5 4 5 5 4 3 2 1 1 2 6 8 8 10 13 14 15 15 15 16 16 13 12 9 9 8 9 11 11 10 10 10 11 11 11 10 9 9 8 8 7 6 8 10 11 9 6 5 6 7 8 8 8 10 11 11 10 10 9 9 11 11 12
1 1 3 4 5 5 4 3 4 4 6 8 9 9 8 6 4 3 1 2 4 6 7 6 6 5 3 3 2 1 2 4 6 6 8 12 14 16 16 15 16 16 14 14 15 12 10 9 10 10 10 10 10 10 11 12 11 10 10 9 8 8 8 6 6 8 10 9 7 5 5 6 6 7 8 9 10 10 9 9 10 10 11 12 12
0 0 2 4 5 5 4 3 4 4 6 8 9 9 7 6 4 2 1 3 5 7 8 9 9 7 3 3 3 3 4 4 4 5 9 13 14 16 16 14 14 15 13 13 13 10 8 8 9 10 10 10 10 10 11 12 12 11 10 9 8 8 8 7 7 7 7 8 7 6 5 5 6 7 7 8 9 9 9 10 11 10 11 13 12
1 0 1 2 5 6 4 3 3 4 5 7 9 10 8 6 4 2 2 3 4 6 8 10 10 9 6 4 4 4 5 4 4 6 11 13 14 16 15 13 13 14 13 13 12 9 7 8 8 8 9 9 8 9 10 11 12 11 10 9 8 8 7 7 8 7 5 6 6 6 6 7 7 6 6 5 6 6 7 9 10 9 10 11 11
2 1 1 2 4 5 5 3 3 4 5 7 9 10 9 7 4 4 4 4 4 5 7 9 10 10 8 5 4 4 4 3 3 7 11 12 13 15 14 12 12 14 13 11 9 8 8 8 7 7 8 8 8 9 10 10 11 11 10 9 8 7 7 7 7 6 5 5 5 5 6 7 6 6 5 5 6 6 6 7 8 8 7 7 7
5 3 2 2 2 4 5 4 3 3 5 7 8 9 8 7 5 5 5 4 5 5 6 8 10 11 9 6 4 4 4 3 4 8 10 11 13 14 13 11 12 14 13 10 7 7 7 7 7 7 7 7 7 8 9 9 9 9 9 8 8 7 6 6 6 6 5 5 4 4 5 5 5 6 6 5 6 6 6 6 8 8 7 6 6
6 4 4 3 2 3 4 4 3 3 4 5 6 7 7 7 7 6 5 5 5 6 6 8 10 11 10 8 5 4 4 4 4 6 8 9 11 13 12 10 9 9 8 7 6 6 6 7 6 6 6 6 6 7 8 8 8 8 8 7 8 7 7 6 6 6 5 5 4 4 4 4 4 4 5 5 5 5 6 6 7 6 6 6 6
8 6 4 3 3 3 5 5 4 5 5 5 5 6 7 8 9 8 8 7 6 5 5 7 9 10 10 9 6 5 5 4 4 5 6 8 9 11 10 7 4 4 3 3 4 5 5 5 5 5 5 5 5 6 7 7 7 7 7 6 7 7 6 6 6 5 5 5 5 4 4 3 3 4 4 5 7 7 7 6 6 6 6 6 6
10 9 7 4 3 4 5 6 6 7 8 7 7 7 8 9 10 9 10 10 8 6 6 7 8 9 10 10 8 5 5 5 4 5 5 6 8 10 8 5 4 4 3 3 3 3 4 5 5 4 4 4 4 5 5 6 6 6 6 7 7 7 7 7 6 6 5 5 5 5 5 4 3 4 4 5 7 7 7 6 6 6 7 7 7
10 11 11 8 5 4 5 6 7 8 9 9 8 8 9 10 11 10 10 11 9 7 6 7 8 7 7 8 9 7 6 5 5 6 7 8 9 9 6 4 5 5 3 3 3 2 2 3 4 3 3 3 3 4 5 5 5 5 6 8 8 7 8 8 7 5 5 5 5 5 5 5 5 5 5 5 6 7 7 6 6 6 6 7 7
10 12 12 11 9 6 5 6 8 9 8 7 8 8 8 9 10 10 10 11 10 8 7 8 8 6 6 7 9 9 7 6 5 5 6 7 6 5 4 4 5 5 4 4 3 2 2 2 3 2 2 2 2 3 4 4 5 5 5 7 7 7 7 6 6 5 6 5 5 5 6 5 5 6 6 7 7 7 7 7 6 6 6 7 7
9 10 12 12 11 9 6 6 6 7 8 7 7 8 9 10 10 11 11 12 11 10 9 8 8 8 8 8 9 8 6 4 4 4 4 5 5 5 5 5 5 5 4 4 4 3 2 2 1 1 2 2 2 3 3 4 5 5 5 6 7 6 6 5 5 6 6 5 6 6 6 5 5 6 7 7 7 7 7 7 7 7 7 7 7
9 10 11 12 12 11 9 7 5 6 7 8 8 8 9 9 10 11 12 13 13 13 12 10 10 11 11 11 10 8 6 5 5 6 5 5 6 6 6 6 6 6 4 4 4 4 3 3 2 1 1 1 1 2 2 3 3 4 5 5 6 6 6 5 5 6 6 6 6 6 6 6 6 6 7 8 8 7 7 7 7 7 7 7 7
9 9 10 11 11 11 10 9 8 7 7 8 9 9 9 9 10 11 12 14 14 16 16 14 12 12 13 13 11 10 9 8 7 7 7 7 7 7 7 7 8 8 5 4 4 4 4 4 3 3 2 1 0 1 1 2 2 3 4 4 5 5 6 6 6 6 6 7 7 7 7 7 7 7 7 7 7 7 7 7 8 8 8 8 9
10 9 10 10 10 10 10 9 9 8 7 8 9 10 9 10 10 10 12 14 15 17 19 17 14 13 15 15 12 11 12 10 9 9 9 8 8 8 8 6 7 8 8 6 5 3 4 5 4 4 4 2 1 3 2 1 2 3 3 4 4 5 6 6 6 6 7 8 8 8 8 8 8 8 8 8 8 8 9 9 10 10 11 11 12
11 10 10 10 10 10 10 10 10 10 9 10 11 11 10 10 10 9 11 12 13 14 17 18 17 15 15 17 16 14 13 12 10 10 11 9 9 9 8 7 8 10 10 8 6 3 4 5 6 5 4 3 3 4 4 3 3 3 3 3 4 5 5 6 6 6 7 8 8 9 9 10 10 9 10 10 11 11 12 12 13 13 14 14 15
11 11 10 10 10 10 9 10 10 10 11 11 10 10 11 12 11 9 10 11 11 11 13 16 17 17 16 17 17 16 14 13 12 11 11 10 10 10 9 9 10 12 10 8 7 5 3 7 7 6 4 4 4 4 5 4 4 4 4 3 4 5 6 6 6 7 7 8 9 9 10 10 10 11 11 12 12 13 14 14 15 16 15 16 16
14 13 12 11 11 11 11 11 10 10 11 11 11 11 11 11 11 10 10 10 11 12 12 14 16 18 18 17 17 17 16 14 13 12 12 11 10 10 9 10 12 13 11 9 8 7 4 6 8 7 6 6 6 5 5 5 4 4 5 4 5 6 6 6 7 7 8 9 9 9 10 11 11 12 12 13 13 13 14 15 15 15 14 14 13
16 14 14 13 12 12 11 12 12 11 11 11 11 12 12 11 11 11 10 10 12 13 13 13 15 17 18 17 17 17 17 15 14 13 13 12 11 11 11 12 13 13 12 10 10 8 6 6 8 8 7 7 8 7 6 6 5 5 5 5 6 6 7 7 7 8 9 10 10 11 11 12 12 13 13 13 14 14 15 15 14 14 13 13 12
16 15 15 15 14 13 12 12 12 12 11 11 11 11 12 12 13 12 11 11 13 14 14 13 14 17 19 19 18 17 17 16 14 14 14 14 13 12 12 13 14 13 13 12 11 9 7 7 8 8 8 8 8 8 7 7 7 6 6 7 7 9 10 10 10 10 10 11 11 11 11 11 12 12 12 13 14 14 13 13 13 12 12 12 11
16 16 15 15 15 14 14 14 13 11 11 11 11 11 11 12 13 13 13 13 13 14 13 13 13 15 18 19 19 18 17 17 16 15 15 15 15 14 15 15 14 13 14 14 12 10 9 9 8 9 9 9 8 9 9 8 8 8 8 9 9 10 11 12 12 13 14 12 10 10 11 11 11 11 12 12 12 12 11 11 11 11 10 10 10
15 16 15 15 15 15 14 14 14 12 12 12 12 12 12 12 13 13 14 13 13 14 14 13 13 13 14 17 18 20 21 22 21 18 17 17 17 17 18 18 16 14 15 16 14 12 11 10 10 10 11 10 9 10 10 10 9 9 10 10 10 11 11 12 13 15 15 12 10 10 11 11 10 11 11 10 10 10 10 10 10 9 9 9 8
13 14 14 14 15 14 14 14 14 13 13 14 13 13 12 12 12 13 14 14 14 15 15 15 14 13 14 14 16 18 21 24 24 22 20 18 19 20 21 20 18 16 15 16 16 15 13 12 12 11 11 11 11 10 11 12 12 12 11 11 11 12 13 13 14 14 14 13 10 9 10 11 10 10 10 10 9 9 9 9 9 9 8 8 8
Wind_Direction
165 173 174 167 145 148 180 127 115 147 31 22 4 349 354 355 350 348 346 335 341 355 347 358 22 50 51 25 14 354 1 8 1 355 352 348 353 353 336 338 354 0 341 344 351 339 337 341 334 329 331 332 330 324 319 317 317 312 308 309 305 305 310 305 296 293 291 289 289 287 286 289 287 278 277 277 277 272 263 256 256 256 253 252 256
201 187 174 172 180 216 192 144 90 57 27 5 359 0 354 351 356 355 341 331 346 16 20 25 46 54 32 32 29 350 358 5 355 350 348 345 348 350 341 347 3 6 352 351 348 334 333 335 329 325 324 324 324 324 322 322 321 318 314 308 302 299 301 301 298 296 294 292 290 289 287 286 284 281 280 278 276 269 261 257 256 255 254 251 250
192 184 183 191 211 260 245 216 316 9 14 350 345 359 350 349 358 1 355 356 16 49 69 71 47 39 28 28 27 1 355 356 351 349 346 342 346 350 354 2 7 4 358 350 344 336 330 329 326 323 323 321 320 318 315 315 315 314 312 308 302 298 298 296 294 292 292 293 292 292 291 287 284 284 284 281 279 272 262 257 256 254 252 248 243
179 185 201 213 222 236 225 220 289 335 351 337 332 348 350 348 357 12 23 35 63 61 66 42 16 29 34 24 17 1 353 352 350 347 342 343 350 357 1 6 3 358 354 344 340 335 328 328 325 321 320 318 318 314 310 310 311 308 309 308 303 301 299 296 292 290 290 291 291 291 292 290 288 287 288 288 286 284 276 264 256 249 247 246 241
204 206 211 221 224 223 227 242 292 319 335 330 314 328 347 349 359 23 34 36 90 35 12 19 24 34 38 17 4 358 358 354 344 341 342 350 0 2 360 2 359 351 342 337 337 330 325 326 323 320 316 313 315 316 312 312 313 310 309 308 305 302 301 298 295 292 289 288 289 289 289 288 288 287 286 286 285 285 284 276 264 254 245 243 237
225 228 223 224 226 231 242 251 262 288 299 286 287 308 331 343 357 17 19 20 43 0 359 18 32 40 34 20 6 358 357 345 337 340 349 359 3 3 359 356 354 350 340 336 334 328 325 326 321 317 312 310 313 316 316 315 314 312 309 306 305 302 300 300 298 294 291 290 288 288 286 281 280 281 282 285 284 278 276 273 269 260 247 242 237
231 238 231 228 232 236 239 243 247 262 278 282 284 298 319 338 352 355 350 13 18 353 1 15 26 29 20 14 357 349 351 346 343 351 1 2 1 1 354 349 347 342 333 331 330 323 319 320 322 323 320 317 313 314 317 315 312 313 312 309 306 304 303 302 299 295 292 290 288 287 286 283 283 285 286 289 289 284 278 268 259 251 242 240 238
235 239 237 234 242 243 230 233 250 256 257 263 266 277 305 332 343 341 341 353 357 28 35 26 31 22 4 0 355 356 2 360 357 3 3 359 359 354 347 346 344 339 337 338 332 321 319 322 323 318 306 298 301 307 311 311 311 312 309 306 305 307 307 303 300 298 294 292 295 298 300 302 300 299 299 299 301 303 297 285 269 251 237 236 237
240 244 250 248 251 252 237 235 246 247 243 249 256 264 296 333 335 328 332 330 325 66 71 42 41 18 354 355 4 13 11 357 356 2 1 355 352 348 348 348 349 353 358 356 348 341 346 349 329 317 311 304 307 311 311 312 316 318 315 311 312 313 313 309 307 306 306 307 310 310 306 299 294 298 304 304 304 300 290 284 285 271 250 246 243
257 260 266 258 248 248 244 243 249 250 252 258 265 279 316 335 327 315 323 322 310 354 19 20 14 359 347 352 6 20 6 351 354 358 356 350 348 353 356 355 0 6 4 360 358 356 358 354 334 330 333 335 332 325 321 325 328 328 327 324 321 318 313 311 312 309 311 314 312 307 303 300 301 304 303 299 297 296 290 287 289 284 272 267 257
271 275 276 267 256 252 250 251 255 256 258 261 264 281 312 321 312 300 308 302 291 328 10 12 1 353 350 354 10 25 358 352 354 352 350 348 353 3 3 2 9 7 359 2 2 355 354 351 341 337 337 339 340 335 331 334 333 330 329 323 319 318 315 315 314 306 304 305 303 300 299 300 303 304 300 294 288 284 284 286 287 288 285 278 265
271 277 278 273 270 266 260 258 258 256 256 256 258 272 281 278 287 290 277 276 277 330 351 352 0 359 354 4 39 42 354 354 352 349 351 354 5 18 12 8 12 0 356 5 0 354 358 356 350 348 337 335 341 343 337 334 331 328 326 320 315 318 323 322 313 305 306 306 302 300 296 294 296 300 297 290 281 276 274 274 275 275 273 270 260
267 274 278 280 283 281 272 264 261 260 259 258 260 267 260 236 246 266 255 257 252 174 305 341 17 0 353 22 92 49 348 354 351 352 2 6 16 30 18 10 11 355 351 1 359 356 360 355 352 350 341 337 341 343 336 331 329 327 324 323 321 320 321 318 312 311 314 310 305 307 307 303 302 302 294 286 282 280 274 265 261 259 258 259 257
270 275 277 282 287 288 283 272 264 261 258 257 257 259 250 221 214 238 241 242 222 169 177 246 327 344 356 50 110 11 348 355 354 1 12 15 26 37 17 8 10 354 349 359 1 359 357 352 351 347 341 339 342 344 336 327 325 324 322 324 321 314 311 311 314 317 314 308 307 309 309 304 301 298 295 291 286 280 274 267 263 261 258 254 253
275 278 276 280 286 286 282 276 268 262 255 252 252 248 239 214 211 227 233 222 194 167 175 204 326 352 22 87 114 6 357 2 2 8 14 18 32 38 14 7 10 358 355 2 1 357 353 350 349 345 339 339 345 348 339 331 330 330 327 323 318 313 311 311 313 312 305 300 301 301 299 297 296 294 292 290 284 280 278 274 267 264 264 262 258
273 274 274 283 289 284 277 269 261 251 243 240 239 234 221 205 207 220 219 200 183 173 176 196 339 15 74 107 127 2 3 9 9 9 11 18 31 31 12 10 11 2 1 3 355 350 351 352 353 349 344 344 349 350 343 340 341 342 341 337 331 328 319 314 314 308 302 303 302 300 301 301 299 296 291 284 279 278 280 278 273 271 271 269 263
283 279 284 293 293 282 269 252 229 212 206 198 198 207 202 192 204 215 198 185 182 175 174 191 336 98 107 105 128 342 1 9 13 10 8 13 24 25 13 11 10 5 3 1 355 350 348 351 357 356 350 347 346 346 349 353 353 350 351 348 341 335 324 317 317 312 309 309 305 305 309 309 308 303 294 285 279 278 282 286 289 288 277 269 263
284 292 303 306 297 278 256 232 197 175 174 180 183 190 189 186 200 207 191 189 190 179 179 198 130 114 106 71 65 47 350 2 10 10 6 7 15 22 17 9 7 6 1 358 0 356 346 347 355 357 351 346 345 348 356 358 353 349 348 343 338 335 327 323 321 320 323 320 310 315 326 325 325 318 300 289 288 285 284 287 294 293 280 271 268
274 274 295 310 300 266 235 189 179 170 165 166 167 172 182 188 196 198 189 188 184 173 174 177 115 108 67 29 35 38 359 356 4 7 5 4 8 16 20 10 3 3 0 359 360 355 347 348 349 345 346 346 344 346 351 353 350 348 344 338 335 335 331 330 328 327 334 334 326 333 339 333 334 331 313 301 297 293 286 281 287 292 288 286 285
287 278 291 308 259 242 169 141 155 164 159 159 162 166 175 185 184 176 173 174 170 163 161 164 158 138 29 13 18 20 7 357 359 2 4 3 3 10 19 13 359 357 359 359 356 347 344 349 344 339 343 345 344 345 349 349 348 348 344 339 338 340 339 340 336 332 335 339 339 348 350 349 358 353 335 323 306 298 295 284 285 290 290 292 295
287 286 285 173 174 186 156 144 147 159 163 160 161 164 164 163 157 148 147 149 141 130 121 116 139 131 14 10 8 2 357 356 357 360 2 1 360 5 14 10 358 358 1 358 352 344 340 346 343 337 340 346 348 349 350 349 349 353 355 352 347 346 345 342 340 339 337 335 345 6 357 353 11 12 358 3 8 3 7 342 318 312 307 311 318
283 265 163 163 168 163 157 153 152 158 164 163 165 166 156 145 138 131 127 123 112 101 89 84 108 355 359 7 5 355 350 351 354 358 360 358 356 1 10 7 359 1 4 357 349 344 340 340 336 333 341 351 352 349 350 352 353 356 3 3 359 359 355 347 345 351 349 343 358 21 0 349 10 15 7 22 30 12 2 347 334 336 332 343 20
265 187 159 162 159 151 154 159 158 156 161 167 170 164 152 140 131 124 115 105 94 80 65 60 89 313 351 352 346 352 350 342 346 355 357 354 353 359 6 4 0 2 6 359 345 343 338 331 331 338 348 352 350 351 356 357 354 356 6 8 7 9 9 1 354 359 7 5 13 19 3 359 14 21 18 32 39 18 4 351 334 329 341 38 76
276 180 164 155 149 150 159 168 163 155 163 177 172 160 152 141 131 121 105 89 76 56 41 31 353 344 358 345 328 335 340 333 342 354 353 350 355 4 8 5 359 2 7 359 341 343 343 340 345 352 354 352 355 2 2 353 351 0 17 18 13 13 15 10 2 4 18 22 18 15 6 2 9 22 29 34 34 25 10 1 12 104 102 82 88
308 183 166 153 149 150 167 183 173 160 172 181 168 159 154 146 135 117 91 76 59 30 5 352 347 348 353 346 321 315 328 336 346 352 351 353 359 6 11 11 4 4 8 357 344 349 357 359 359 1 359 355 360 6 359 348 349 358 11 20 20 17 16 11 7 11 23 24 14 6 6 10 21 37 42 41 40 35 24 23 47 77 82 73 77
60 148 156 154 154 152 176 198 184 169 176 179 169 165 163 157 142 100 83 84 13 3 350 345 353 347 341 339 311 308 326 341 351 352 355 359 358 359 7 11 11 12 10 355 346 353 3 2 2 5 2 355 356 2 360 351 349 352 0 12 17 17 19 19 17 16 18 17 11 7 16 34 48 45 42 45 47 44 46 59 71 76 74 70 67
78 155 164 166 170 172 187 199 189 177 177 177 178 182 182 182 185 76 90 223 298 342 352 351 355 347 334 322 303 310 332 354 1 353 352 359 4 3 4 8 13 11 360 350 351 359 2 3 4 3 1 358 359 3 358 350 348 351 0 11 14 12 15 22 25 21 11 8 12 16 28 47 53 44 42 52 54 45 44 60 77 78 69 68 70
76 164 183 181 189 195 193 189 188 180 174 178 188 195 196 194 202 231 240 253 318 342 352 352 348 347 340 314 304 328 352 359 349 344 346 3 20 22 12 11 15 4 352 2 32 21 1 6 8 2 0 3 5 3 354 350 353 358 5 12 13 10 9 15 26 25 17 14 22 29 41 53 53 48 52 62 65 56 46 48 63 75 80 88 92
65 160 189 193 202 203 196 202 203 184 181 194 199 197 198 196 190 206 229 317 13 359 1 352 338 344 341 306 300 54 147 299 324 337 355 15 23 23 18 17 15 1 359 26 53 39 13 9 6 0 0 4 6 5 1 1 2 1 5 12 15 14 11 11 22 24 21 23 31 39 51 55 53 55 64 71 73 68 57 53 61 79 89 91 88
61 169 189 197 207 201 188 209 222 191 186 206 207 197 199 205 199 211 258 16 11 2 2 352 347 356 334 281 276 199 239 299 321 339 10 21 20 19 20 19 13 6 15 41 46 30 14 9 4 2 3 4 6 8 6 7 7 4 5 9 14 18 17 13 19 22 21 27 37 45 49 42 38 50 70 79 76 69 67 70 75 81 86 83 78
56 211 196 196 205 200 180 195 225 207 193 203 205 202 208 215 214 231 330 1 359 2 2 355 356 3 342 296 307 303 299 321 335 359 23 24 18 15 18 19 14 12 26 50 47 24 4 4 7 7 6 2 4 8 8 9 9 6 6 7 11 17 19 18 24 27 21 26 40 57 67 58 49 54 71 84 80 73 78 84 82 80 85 87 84
8 232 233 213 210 205 192 190 212 210 200 200 202 205 214 219 222 241 283 317 342 359 2 359 360 2 352 327 319 318 319 332 357 23 29 24 16 13 13 17 17 14 24 42 42 21 3 5 6 8 6 0 1 7 9 11 10 7 6 9 12 14 15 19 30 34 22 21 35 53 74 83 78 69 69 77 82 86 90 87 82 79 82 84 85
341 263 237 236 222 212 207 203 202 202 206 207 207 209 213 216 223 245 268 295 325 348 358 0 359 359 358 347 328 325 323 327 14 35 31 21 15 10 4 10 23 24 29 39 32 14 10 6 0 6 7 358 360 7 8 9 12 10 7 9 14 15 12 16 29 35 28 24 32 44 60 73 77 72 63 65 80 95 98 90 87 88 81 74 78
350 317 278 257 238 220 213 210 207 209 213 213 211 211 212 213 222 242 264 292 314 326 344 357 360 360 0 354 341 335 323 320 18 38 30 19 12 4 359 9 20 20 25 34 23 11 13 3 356 7 8 356 359 8 6 6 10 11 10 12 15 17 16 17 25 33 31 27 31 42 49 52 57 58 54 53 66 85 100 104 101 94 80 69 72
10 345 319 299 280 255 236 225 223 224 224 220 216 215 214 216 224 235 247 262 279 295 317 342 356 0 359 353 348 340 320 322 12 32 27 19 10 0 3 15 11 0 10 22 11 6 9 359 355 5 4 356 359 4 4 8 11 11 13 16 16 16 19 21 24 28 29 26 30 45 53 53 57 59 55 56 66 77 91 104 101 84 71 70 76
19 11 352 327 300 280 264 255 247 239 234 233 234 234 231 228 231 238 248 254 255 256 280 315 341 354 355 353 349 337 321 325 353 10 15 17 6 358 5 14 350 325 336 350 353 3 3 355 357 0 354 354 359 0 4 12 13 13 17 18 16 18 21 22 23 25 28 30 36 46 55 69 80 71 65 76 88 87 85 87 83 73 72 80 83
13 14 10 352 311 282 270 265 260 252 246 243 248 253 252 249 249 249 248 252 251 242 254 294 322 336 343 348 352 346 329 323 334 349 1 4 358 359 7 0 321 312 311 310 332 0 357 348 354 354 343 347 358 1 9 15 15 17 18 11 10 16 19 18 20 27 30 30 35 44 56 71 83 78 75 82 89 89 85 84 86 87 89 91 91
4 7 11 7 343 300 274 266 264 261 257 256 256 257 258 262 267 261 246 241 243 242 254 284 304 313 319 331 341 345 337 328 335 344 344 343 349 0 5 337 311 307 295 289 305 338 350 340 338 340 340 348 352 358 11 18 17 21 23 15 11 14 17 14 14 24 35 36 36 49 64 71 70 75 84 88 87 87 87 88 89 89 88 91 94
0 359 3 5 0 342 304 279 270 267 265 261 260 262 263 263 266 262 252 246 245 244 252 272 284 283 279 298 321 336 339 337 337 332 321 322 333 336 318 304 303 298 284 280 287 299 318 320 322 326 331 336 349 4 18 22 17 20 30 28 20 17 19 19 17 23 37 46 50 61 72 70 61 67 83 92 91 92 94 94 93 90 88 91 93
0 353 355 359 2 359 344 316 288 274 269 263 261 265 266 266 266 263 258 254 248 245 250 261 268 269 270 282 304 320 322 305 294 288 280 276 276 278 284 295 302 297 285 277 273 262 252 268 290 304 306 318 351 13 24 33 29 23 30 37 32 25 25 28 28 31 40 51 61 70 76 72 63 67 82 92 94 93 92 90 88 88 90 91 91
357 351 352 354 357 359 356 348 328 299 283 275 269 265 265 270 272 266 262 258 251 247 250 253 254 260 269 280 293 302 300 281 270 275 278 271 266 268 272 280 291 296 281 262 268 263 239 232 225 212 261 307 0 21 22 44 50 36 36 47 48 41 36 36 38 46 52 56 63 72 79 81 80 79 84 89 89 86 85 85 85 86 88 86 85
1 353 349 348 351 355 354 351 345 331 311 296 288 280 271 270 270 266 262 259 253 248 248 249 248 256 266 273 280 288 291 286 272 267 271 270 265 265 265 272 288 298 288 260 258 251 238 239 221 177 193 262 27 85 58 55 72 62 50 56 62 61 58 52 48 52 59 63 68 74 77 79 84 88 88 90 91 88 86 88 90 90 88 85 85
15 3 354 349 346 344 342 340 340 338 327 309 303 300 289 277 273 270 266 263 258 252 249 247 246 252 262 267 269 271 279 284 277 266 267 267 261 261 264 265 275 287 294 295 283 243 220 230 224 186 182 202 159 129 126 123 115 95 73 67 75 80 81 75 65 61 66 69 69 71 73 74 79 85 86 88 92 93 89 88 90 90 90 91 92
14 2 358 352 344 338 334 330 328 328 325 317 312 314 314 304 290 275 265 264 265 260 253 248 245 245 255 263 263 260 266 276 274 263 260 260 256 257 257 246 252 271 287 296 295 270 206 212 228 219 191 183 167 141 134 136 133 117 96 86 93 96 99 99 92 85 82 80 77 76 79 79 80 84 86 86 89 92 91 91 94 97 97 98 98
7 1 358 352 343 339 334 325 317 314 316 317 313 309 310 313 309 292 272 264 265 264 259 254 248 242 245 257 263 261 261 264 264 260 258 255 254 255 249 239 252 273 283 283 286 285 213 200 224 235 203 180 175 158 144 143 142 130 121 120 124 119 114 113 109 101 95 93 90 89 90 89 89 91 93 93 95 97 98 99 101 102 101 100 99
7 5 360 351 346 343 339 333 325 314 306 303 300 297 296 300 304 300 288 274 267 263 260 257 253 246 242 246 254 259 260 258 253 252 252 250 249 250 241 236 251 270 277 274 279 284 245 209 220 229 207 185 184 179 162 151 145 140 140 142 140 131 125 124 121 114 108 104 102 101 102 101 101 100 100 100 101 102 103 105 105 103 103 102 100
4 2 357 353 351 345 338 335 333 328 319 310 304 301 299 295 294 295 293 287 282 276 268 259 253 248 245 243 245 249 253 252 247 244 245 248 250 248 240 240 251 264 271 272 274 276 262 230 225 231 222 201 190 185 174 165 163 161 155 152 152 152 149 143 133 125 120 116 112 109 107 105 105 105 105 105 106 107 107 107 106 105 105 104 101
358 356 354 353 353 348 341 337 334 332 329 322 313 308 305 301 298 296 291 287 289 289 285 274 259 248 244 244 245 246 247 248 247 244 241 243 249 251 250 254 258 260 263 269 271 269 261 245 232 233 234 217 197 188 184 179 176 174 170 171 174 172 163 150 141 138 135 128 120 117 115 114 114 114 113 112 112 112 110 110 109 107 106 105 103
350 352 352 352 352 350 346 345 342 336 330 325 320 317 312 305 301 297 291 286 287 288 290 289 280 262 250 246 246 246 246 247 249 248 243 241 242 247 257 268 271 261 257 264 268 264 257 250 236 231 236 230 208 196 193 187 180 182 189 188 180 170 162 156 152 147 139 129 125 127 126 124 123 122 120 120 120 119 118 117 116 114 112 111 108
344 349 351 351 352 351 349 348 346 340 333 330 328 323 318 313 309 304 297 289 285 284 283 283 283 277 266 256 250 247 246 246 246 245 244 243 242 244 256 270 276 268 258 260 263 261 256 251 240 232 235 235 221 204 195 188 185 193 199 193 181 172 167 165 161 152 139 130 132 137 133 130 130 129 126 126 128 126 124 123 122 118 116 115 113
340 346 348 350 353 354 352 350 347 341 335 334 334 329 323 319 316 312 305 296 290 288 286 282 280 278 273 266 258 253 252 251 249 245 243 241 241 246 255 266 272 271 262 258 258 259 254 249 243 235 231 233 229 213 195 189 195 201 199 189 182 178 171 167 167 162 149 139 141 146 141 138 139 137 133 134 135 132 130 129 127 125 122 118 115
Height
1542 1542 1543 1543 1543 1544 1544 1544 1544 1544 1544 1544 1544 1544 1543 1542 1542 1541 1540 1539 1538 1537 1536 1535 1535 1535 1535 1535 1535 1534 1532 1531 1531 1530 1528 1526 1525 1525 1523 1520 1518 1518 1518 1517 1516 1516 1515 1514 1514 1513 1513 1512 1512 1512 1511 1511 1510 1509 1509 1508 1507 1507 1506 1506 1505 1504 1503 1503 1502 1502 1501 1501 1500 1500 1500 1499 1498 1497 1497 1497 1498 1498 1499 1501 1500
1542 1542 1542 1543 1543 1544 1544 1544 1544 1544 1544 1544 1544 1544 1543 1542 1542 1541 1540 1539 1538 1537 1537 1536 1536 1535 1535 1535 1534 1533 1532 1531 1530 1529 1527 1526 1524 1524 1522 1519 1518 1518 1517 1516 1516 1515 1514 1514 1514 1513 1513 1512 1512 1511 1511 1510 1509 1509 1508 1507 1507 1506 1506 1505 1504 1503 1502 1501 1501 1500 1499 1499 1498 1498 1497 1496 1495 1494 1494 1494 1495 1496 1497 1498 1499
1541 1541 1542 1542 1543 1543 1544 1544 1544 1544 1544 1544 1544 1544 1543 1542 1541 1541 1540 1539 1539 1538 1537 1537 1536 1535 1534 1533 1533 1533 1532 1531 1530 1528 1527 1525 1524 1522 1521 1519 1519 1518 1518 1517 1516 1515 1514 1514 1514 1513 1513 1512 1511 1511 1510 1510 1509 1508 1507 1507 1506 1505 1505 1504 1503 1502 1501 1500 1499 1498 1498 1497 1496 1495 1494 1493 1492 1491 1491 1491 1492 1493 1494 1495 1497
1541 1541 1541 1542 1542 1543 1543 1543 1543 1543 1543 1544 1543 1543 1542 1542 1541 1540 1540 1540 1540 1539 1538 1537 1535 1534 1534 1533 1533 1532 1531 1530 1530 1528 1527 1525 1523 1522 1520 1520 1519 1518 1518 1517 1516 1515 1514 1514 1513 1513 1512 1511 1511 1510 1509 1509 1508 1507 1506 1506 1505 1504 1503 1502 1502 1501 1499 1498 1497 1497 1496 1495 1494 1493 1492 1491 1490 1489 1489 1489 1489 1490 1491 1492 1494
1539 1539 1540 1540 1540 1541 1541 1542 1542 1542 1542 1543 1542 1541 1541 1541 1540 1540 1540 1540 1539 1538 1537 1536 1536 1535 1535 1534 1533 1532 1531 1530 1529 1528 1526 1524 1523 1522 1520 1519 1519 1518 1518 1516 1515 1515 1514 1513 1513 1512 1511 1510 1510 1509 1508 1508 1507 1506 1506 1504 1503 1503 1502 1501 1500 1499 1498 1496 1495 1494 1494 1493 1492 1491 1490 1489 1489 1488 1487 1487 1487 1487 1488 1489 1491
1537 1537 1538 1538 1539 1539 1539 1540 1540 1540 1541 1541 1541 1540 1540 1540 1540 1540 1540 1539 1539 1538 1537 1536 1536 1536 1535 1534 1533 1532 1531 1530 1528 1527 1525 1524 1523 1522 1520 1519 1518 1518 1517 1515 1514 1514 1513 1512 1512 1511 1510 1509 1509 1508 1507 1507 1506 1505 1504 1503 1502 1501 1500 1499 1498 1496 1495 1494 1493 1492 1491 1491 1490 1489 1488 1487 1487 1486 1486 1486 1486 1485 1486 1486 1487
1535 1536 1537 1538 1538 1538 1538 1539 1539 1539 1539 1539 1539 1539 1540 1540 1539 1539 1539 1538 1538 1538 1537 1537 1536 1536 1535 1534 1533 1532 1531 1529 1527 1526 1525 1524 1522 1521 1520 1519 1517 1517 1516 1514 1514 1513 1512 1511 1511 1510 1509 1508 1507 1507 1506 1506 1505 1504 1503 1502 1500 1499 1497 1496 1495 1494 1493 1492 1491 1490 1489 1488 1487 1486 1486 1485 1484 1484 1484 1484 1484 1484 1484 1484 1485
1536 1537 1538 1538 1538 1537 1538 1538 1537 1538 1537 1537 1538 1538 1538 1539 1538 1538 1538 1538 1538 1538 1537 1537 1537 1536 1535 1534 1533 1532 1531 1529 1528 1526 1525 1524 1523 1521 1520 1518 1517 1515 1514 1513 1513 1511 1510 1510 1510 1509 1508 1506 1505 1505 1505 1504 1503 1502 1501 1500 1498 1497 1495 1495 1493 1492 1491 1490 1489 1488 1487 1487 1486 1485 1485 1484 1484 1483 1483 1482 1482 1482 1482 1482 1483
1536 1537 1537 1538 1537 1537 1537 1536 1536 1537 1536 1536 1537 1537 1537 1538 1538 1538 1538 1538 1538 1537 1537 1537 1536 1536 1535 1534 1533 1532 1531 1529 1527 1526 1525 1524 1523 1521 1519 1518 1516 1515 1514 1513 1512 1511 1510 1510 1509 1508 1506 1505 1505 1504 1503 1502 1501 1500 1499 1497 1496 1495 1494 1493 1491 1490 1489 1488 1488 1487 1487 1486 1485 1485 1485 1484 1483 1483 1482 1481 1481 1481 1480 1480 1480
1536 1536 1536 1536 1536 1536 1535 1535 1536 1536 1536 1536 1537 1537 1537 1538 1538 1538 1538 1538 1537 1537 1537 1536 1536 1535 1534 1533 1533 1532 1531 1529 1527 1526 1525 1523 1522 1521 1519 1518 1516 1516 1515 1514 1513 1512 1511 1510 1509 1507 1506 1505 1504 1503 1502 1501 1500 1499 1497 1496 1495 1494 1492 1491 1490 1489 1488 1488 1487 1487 1486 1485 1484 1484 1484 1483 1482 1482 1481 1480 1480 1479 1479 1479 1479
1535 1535 1535 1535 1534 1535 1535 1535 1535 1536 1536 1536 1536 1536 1537 1537 1538 1538 1538 1538 1537 1537 1537 1536 1535 1535 1534 1533 1533 1532 1530 1528 1527 1526 1525 1523 1521 1520 1520 1518 1517 1517 1515 1514 1513 1512 1511 1510 1509 1507 1506 1505 1504 1502 1501 1500 1498 1497 1496 1495 1494 1493 1492 1491 1490 1488 1487 1487 1486 1486 1485 1484 1483 1483 1483 1482 1481 1480 1480 1479 1479 1479 1479 1478 1478
1534 1534 1534 1534 1534 1534 1534 1534 1534 1534 1535 1535 1536 1536 1536 1536 1537 1538 1538 1537 1537 1537 1537 1536 1535 1535 1534 1533 1533 1531 1529 1528 1527 1526 1524 1523 1521 1520 1520 1519 1518 1517 1515 1514 1513 1512 1510 1509 1508 1507 1506 1504 1503 1502 1500 1499 1498 1496 1495 1494 1493 1492 1491 1490 1489 1488 1486 1485 1485 1484 1483 1483 1482 1482 1482 1481 1480 1479 1478 1478 1478 1478 1478 1478 1478
1533 1533 1533 1533 1533 1533 1533 1533 1533 1533 1534 1535 1535 1535 1534 1535 1536 1537 1537 1537 1537 1537 1536 1536 1535 1535 1534 1533 1533 1531 1529 1528 1527 1526 1524 1522 1521 1520 1520 1520 1519 1517 1515 1514 1513 1512 1510 1509 1508 1507 1505 1504 1502 1501 1500 1498 1497 1496 1494 1493 1492 1491 1490 1489 1488 1487 1486 1485 1483 1482 1482 1481 1480 1480 1480 1478 1477 1477 1476 1476 1476 1475 1476 1476 1476
1531 1531 1532 1532 1532 1532 1531 1531 1532 1532 1532 1533 1534 1533 1533 1534 1535 1536 1536 1536 1536 1536 1536 1535 1535 1534 1533 1533 1532 1531 1529 1528 1527 1525 1524 1522 1520 1520 1520 1520 1519 1517 1515 1514 1513 1512 1510 1509 1507 1506 1505 1503 1502 1501 1499 1498 1496 1495 1493 1492 1491 1490 1489 1488 1487 1486 1485 1484 1483 1482 1481 1480 1479 1478 1477 1476 1475 1475 1474 1473 1473 1473 1473 1474 1474
1530 1530 1530 1531 1531 1531 1530 1530 1531 1531 1531 1532 1532 1532 1532 1533 1534 1535 1535 1535 1536 1536 1536 1535 1534 1534 1533 1532 1532 1530 1529 1528 1526 1524 1523 1522 1520 1520 1521 1520 1519 1517 1515 1514 1513 1512 1510 1508 1507 1506 1504 1503 1502 1500 1499 1497 1495 1494 1492 1491 1490 1489 1488 1487 1486 1485 1484 1483 1482 1481 1480 1478 1477 1476 1475 1474 1473 1473 1472 1472 1472 1472 1472 1472 1472
1530 1529 1530 1530 1530 1530 1530 1530 1530 1530 1530 1530 1531 1532 1532 1533 1533 1534 1534 1535 1535 1536 1536 1535 1534 1533 1533 1532 1532 1530 1528 1527 1526 1524 1523 1521 1520 1520 1520 1519 1518 1517 1515 1514 1513 1511 1510 1508 1507 1506 1504 1503 1502 1500 1499 1497 1495 1493 1492 1490 1489 1488 1487 1486 1485 1484 1483 1482 1481 1479 1478 1476 1475 1473 1472 1471 1471 1471 1471 1471 1470 1470 1470 1470 1470
1529 1529 1529 1529 1529 1529 1529 1529 1529 1529 1529 1529 1530 1531 1532 1532 1533 1534 1534 1534 1535 1535 1535 1534 1533 1533 1532 1532 1532 1531 1529 1527 1525 1523 1522 1520 1520 1520 1520 1519 1518 1517 1515 1514 1513 1511 1510 1508 1507 1506 1505 1503 1502 1500 1498 1496 1494 1493 1491 1490 1489 1488 1487 1485 1484 1482 1481 1480 1479 1478 1476 1475 1473 1471 1470 1470 1470 1470 1470 1470 1469 1469 1469 1469 1468
1530 1529 1529 1529 1529 1529 1529 1529 1529 1529 1529 1529 1530 1531 1532 1532 1533 1533 1534 1534 1534 1534 1534 1533 1533 1532 1532 1532 1531 1531 1529 1527 1525 1523 1521 1520 1519 1519 1519 1518 1517 1516 1515 1514 1513 1512 1510 1508 1507 1506 1504 1503 1501 1500 1498 1496 1494 1492 1491 1489 1488 1487 1486 1484 1483 1481 1480 1479 1478 1476 1475 1473 1472 1470 1469 1469 1469 1469 1469 1469 1469 1468 1468 1467 1467
1530 1529 1529 1529 1529 1529 1529 1530 1530 1530 1530 1530 1530 1531 1532 1532 1533 1533 1533 1534 1533 1534 1533 1533 1533 1532 1532 1532 1531 1530 1529 1526 1524 1523 1521 1520 1518 1518 1518 1518 1517 1516 1515 1514 1513 1512 1510 1508 1507 1505 1504 1502 1501 1500 1498 1496 1494 1492 1491 1489 1488 1486 1485 1483 1482 1480 1479 1478 1477 1475 1474 1473 1471 1470 1469 1469 1469 1469 1468 1468 1468 1467 1466 1466 1466
1529 1529 1529 1528 1528 1529 1529 1530 1530 1530 1530 1530 1530 1531 1532 1533 1533 1533 1534 1534 1534 1534 1534 1534 1533 1533 1532 1531 1530 1530 1529 1526 1524 1523 1521 1520 1518 1517 1516 1517 1516 1515 1514 1513 1512 1511 1510 1508 1506 1505 1503 1502 1501 1499 1497 1496 1494 1492 1490 1489 1487 1486 1484 1482 1481 1480 1478 1477 1476 1474 1473 1472 1471 1470 1470 1469 1469 1468 1468 1468 1468 1467 1465 1465 1466
1529 1529 1528 1528 1528 1528 1528 1529 1530 1530 1531 1531 1531 1531 1532 1533 1533 1533 1533 1534 1534 1533 1533 1533 1533 1533 1532 1531 1530 1529 1528 1526 1524 1523 1521 1519 1518 1516 1516 1515 1515 1514 1513 1513 1512 1511 1509 1508 1506 1504 1503 1502 1501 1499 1497 1495 1494 1492 1490 1488 1487 1485 1484 1482 1481 1479 1477 1476 1475 1474 1473 1472 1471 1471 1470 1470 1469 1469 1468 1468 1468 1467 1465 1465 1466
1528 1528 1528 1528 1528 1528 1528 1529 1529 1530 1531 1531 1532 1532 1532 1533 1533 1533 1533 1533 1533 1533 1533 1532 1533 1532 1531 1531 1530 1528 1527 1525 1524 1522 1521 1519 1517 1516 1515 1514 1514 1513 1512 1512 1511 1510 1509 1508 1506 1504 1503 1502 1500 1499 1497 1495 1493 1491 1490 1488 1486 1485 1484 1482 1480 1479 1477 1476 1475 1474 1473 1472 1472 1471 1470 1470 1470 1469 1468 1468 1467 1467 1466 1466 1466
1528 1528 1528 1528 1528 1529 1529 1529 1529 1530 1531 1532 1532 1532 1532 1533 1533 1533 1533 1533 1533 1533 1532 1532 1532 1532 1531 1530 1529 1528 1527 1525 1524 1522 1520 1519 1517 1516 1514 1514 1513 1512 1511 1511 1510 1510 1508 1507 1506 1504 1503 1501 1500 1498 1497 1495 1493 1491 1490 1488 1486 1485 1484 1482 1480 1478 1477 1476 1475 1474 1474 1473 1472 1471 1470 1470 1469 1469 1468 1467 1467 1467 1467 1466 1466
1528 1528 1528 1528 1528 1529 1529 1529 1529 1530 1531 1532 1532 1533 1533 1533 1533 1534 1533 1533 1533 1532 1532 1532 1532 1531 1530 1530 1529 1528 1527 1525 1523 1522 1520 1519 1517 1516 1514 1513 1512 1511 1510 1510 1510 1508 1507 1506 1505 1504 1502 1501 1499 1498 1496 1495 1493 1491 1489 1488 1487 1486 1484 1483 1481 1479 1477 1476 1476 1475 1474 1474 1473 1472 1471 1471 1470 1469 1468 1467 1467 1467 1467 1466 1466
1528 1528 1528 1528 1528 1529 1529 1529 1530 1530 1531 1532 1532 1533 1534 1534 1534 1534 1533 1533 1533 1532 1532 1532 1531 1530 1529 1529 1528 1527 1526 1525 1523 1521 1520 1518 1517 1515 1514 1512 1511 1510 1510 1509 1508 1507 1506 1505 1504 1503 1502 1501 1499 1498 1497 1495 1493 1491 1489 1488 1487 1486 1485 1484 1482 1480 1479 1478 1477 1477 1475 1474 1473 1473 1472 1472 1471 1470 1469 1468 1467 1467 1467 1467 1466
1528 1528 1528 1528 1528 1529 1529 1530 1530 1531 1532 1532 1533 1533 1534 1534 1534 1533 1533 1533 1533 1532 1532 1531 1531 1530 1529 1528 1528 1527 1525 1524 1523 1521 1520 1519 1518 1516 1514 1512 1510 1510 1509 1509 1508 1507 1506 1505 1505 1504 1502 1501 1500 1499 1498 1496 1494 1492 1490 1489 1488 1487 1486 1485 1483 1482 1481 1479 1479 1477 1476 1475 1475 1474 1473 1472 1472 1471 1470 1469 1469 1468 1468 1468 1468
1528 1528 1528 1528 1529 1529 1529 1530 1531 1531 1532 1533 1534 1534 1534 1535 1534 1533 1533 1534 1534 1533 1532 1531 1530 1530 1529 1528 1527 1526 1525 1524 1523 1521 1520 1519 1518 1517 1515 1512 1511 1510 1509 1509 1508 1507 1506 1506 1505 1504 1503 1502 1501 1500 1499 1497 1495 1493 1491 1490 1489 1488 1487 1486 1485 1483 1482 1481 1480 1479 1478 1477 1476 1476 1475 1474 1473 1472 1471 1471 1470 1470 1470 1469 1469
1528 1528 1528 1528 1528 1529 1529 1530 1530 1531 1532 1533 1534 1534 1534 1535 1535 1535 1534 1534 1534 1533 1532 1531 1530 1530 1529 1528 1527 1526 1525 1524 1522 1521 1520 1519 1517 1516 1515 1513 1511 1510 1509 1508 1507 1507 1507 1507 1506 1505 1504 1503 1502 1501 1500 1498 1496 1494 1492 1491 1490 1489 1488 1487 1486 1484 1483 1482 1481 1480 1479 1479 1478 1477 1477 1476 1474 1474 1473 1473 1472 1472 1471 1471 1470
1527 1528 1528 1528 1528 1529 1529 1529 1530 1531 1532 1532 1532 1533 1533 1534 1534 1534 1533 1533 1532 1531 1531 1530 1530 1529 1529 1528 1527 1526 1525 1523 1521 1520 1519 1518 1516 1515 1514 1512 1511 1510 1509 1508 1507 1508 1508 1508 1507 1506 1505 1504 1503 1501 1500 1498 1497 1495 1493 1491 1490 1489 1488 1488 1487 1486 1484 1483 1482 1482 1481 1480 1480 1479 1478 1478 1477 1476 1475 1475 1474 1474 1473 1473 1472
1527 1528 1528 1528 1529 1528 1529 1529 1529 1530 1531 1532 1532 1532 1533 1533 1533 1533 1532 1531 1531 1530 1529 1529 1528 1527 1527 1526 1525 1525 1524 1522 1520 1520 1518 1517 1516 1514 1513 1512 1511 1510 1509 1509 1508 1509 1509 1509 1508 1507 1506 1505 1503 1502 1501 1499 1498 1496 1494 1492 1491 1490 1489 1488 1487 1487 1486 1485 1484 1483 1482 1482 1481 1481 1480 1479 1479 1478 1477 1477 1477 1476 1475 1475 1474
1527 1527 1527 1528 1528 1528 1529 1530 1529 1529 1530 1532 1531 1531 1532 1532 1532 1532 1531 1530 1530 1529 1528 1527 1526 1526 1525 1524 1523 1523 1522 1520 1520 1519 1518 1516 1516 1514 1513 1512 1511 1510 1510 1509 1509 1510 1510 1509 1508 1508 1507 1506 1504 1503 1502 1500 1499 1497 1495 1494 1492 1490 1489 1489 1488 1487 1487 1486 1485 1484 1484 1483 1483 1482 1482 1481 1481 1480 1480 1479 1479 1478 1478 1477 1477
1527 1527 1527 1527 1527 1527 1528 1529 1529 1529 1529 1530 1530 1531 1531 1531 1531 1531 1530 1530 1529 1528 1527 1526 1525 1524 1524 1523 1522 1521 1520 1520 1519 1518 1517 1516 1515 1514 1513 1512 1511 1511 1511 1510 1510 1511 1511 1510 1509 1508 1507 1506 1505 1504 1502 1501 1500 1498 1496 1495 1493 1491 1490 1489 1488 1488 1488 1487 1486 1486 1485 1484 1484 1483 1483 1483 1482 1482 1482 1481 1481 1481 1480 1480 1479
1527 1527 1527 1527 1527 1527 1528 1528 1528 1529 1529 1529 1529 1530 1530 1530 1530 1530 1530 1529 1528 1527 1526 1526 1525 1524 1523 1522 1521 1520 1520 1519 1518 1517 1517 1516 1515 1514 1513 1512 1511 1511 1511 1511 1512 1512 1512 1510 1509 1508 1508 1507 1505 1504 1503 1502 1501 1499 1498 1496 1494 1493 1491 1490 1489 1489 1488 1488 1488 1487 1486 1486 1485 1485 1485 1484 1484 1484 1483 1483 1482 1482 1482 1482 1481
1526 1526 1526 1526 1526 1527 1527 1527 1528 1528 1528 1528 1528 1528 1529 1529 1529 1529 1529 1528 1527 1527 1526 1525 1524 1523 1522 1521 1520 1519 1519 1518 1517 1517 1516 1516 1515 1514 1513 1512 1511 1511 1511 1512 1512 1512 1512 1511 1510 1509 1508 1507 1506 1505 1504 1502 1501 1500 1499 1497 1496 1494 1492 1491 1490 1489 1489 1488 1488 1488 1487 1487 1487 1486 1486 1486 1485 1485 1485 1484 1484 1484 1484 1484 1483
1526 1526 1525 1526 1526 1526 1526 1526 1527 1527 1527 1527 1527 1527 1527 1528 1528 1528 1528 1528 1527 1526 1525 1524 1523 1522 1521 1520 1519 1519 1518 1518 1517 1516 1516 1515 1515 1514 1513 1513 1513 1513 1513 1513 1513 1512 1512 1512 1510 1509 1508 1508 1506 1505 1504 1503 1502 1501 1499 1498 1497 1495 1494 1492 1491 1490 1489 1489 1488 1488 1488 1488 1488 1487 1487 1487 1486 1486 1486 1486 1485 1485 1485 1485 1485
1527 1526 1525 1525 1526 1526 1525 1525 1526 1526 1526 1526 1526 1526 1526 1526 1526 1526 1526 1526 1527 1526 1525 1524 1522 1521 1521 1520 1519 1518 1518 1517 1517 1516 1515 1515 1515 1514 1514 1514 1515 1515 1515 1514 1513 1512 1512 1512 1510 1509 1509 1508 1507 1506 1505 1504 1503 1502 1500 1499 1498 1496 1495 1493 1492 1491 1490 1490 1489 1489 1488 1488 1488 1488 1488 1487 1487 1487 1487 1487 1487 1487 1486 1486 1486
1527 1527 1526 1525 1525 1525 1524 1525 1525 1525 1524 1525 1525 1525 1525 1525 1525 1525 1525 1525 1525 1525 1524 1523 1522 1521 1520 1519 1519 1518 1517 1517 1516 1516 1515 1515 1514 1514 1514 1514 1515 1515 1515 1514 1513 1512 1512 1512 1511 1510 1509 1508 1507 1506 1505 1504 1504 1502 1501 1500 1498 1497 1496 1495 1493 1492 1492 1491 1490 1489 1489 1489 1489 1489 1489 1489 1488 1488 1488 1488 1488 1488 1487 1487 1487
1528 1527 1526 1525 1524 1524 1524 1524 1523 1523 1523 1524 1524 1524 1524 1524 1523 1523 1523 1523 1523 1523 1523 1522 1521 1521 1520 1519 1518 1518 1517 1516 1516 1515 1515 1514 1514 1513 1514 1514 1514 1514 1514 1514 1513 1512 1512 1511 1511 1510 1509 1508 1507 1507 1506 1505 1504 1503 1502 1502 1500 1499 1498 1497 1495 1494 1493 1492 1491 1490 1490 1490 1490 1489 1490 1490 1489 1490 1490 1490 1490 1490 1489 1489 1489
1528 1527 1526 1525 1524 1524 1523 1523 1522 1522 1523 1523 1523 1523 1522 1522 1522 1522 1522 1522 1522 1522 1522 1521 1521 1521 1520 1519 1518 1517 1517 1516 1516 1516 1516 1515 1514 1514 1514 1514 1514 1514 1513 1513 1512 1512 1511 1511 1510 1509 1509 1507 1507 1506 1506 1506 1505 1504 1503 1503 1502 1501 1500 1499 1497 1495 1494 1493 1492 1492 1491 1491 1491 1490 1490 1490 1491 1491 1491 1491 1491 1491 1491 1491 1490
1529 1528 1527 1526 1525 1524 1523 1522 1522 1522 1521 1522 1522 1522 1522 1521 1521 1521 1521 1521 1521 1521 1521 1520 1520 1520 1519 1519 1518 1517 1517 1517 1517 1517 1516 1516 1515 1515 1514 1514 1513 1513 1512 1512 1512 1511 1511 1510 1510 1509 1509 1507 1506 1506 1506 1506 1506 1505 1504 1504 1503 1502 1501 1500 1498 1497 1496 1494 1494 1493 1493 1493 1493 1492 1492 1492 1492 1492 1492 1492 1492 1492 1492 1492 1492
1529 1528 1527 1526 1525 1524 1523 1522 1522 1521 1521 1520 1521 1521 1521 1521 1520 1519 1519 1519 1519 1519 1519 1519 1519 1518 1517 1517 1517 1517 1517 1517 1517 1516 1516 1515 1514 1514 1514 1513 1512 1512 1511 1511 1511 1510 1510 1509 1509 1509 1509 1507 1507 1507 1507 1507 1507 1506 1505 1504 1504 1503 1503 1501 1500 1499 1498 1496 1495 1495 1494 1494 1494 1494 1494 1493 1494 1494 1494 1494 1494 1494 1494 1494 1494
1530 1529 1527 1526 1525 1524 1523 1523 1522 1521 1521 1520 1519 1519 1520 1520 1519 1518 1517 1517 1517 1517 1517 1517 1517 1516 1516 1516 1516 1516 1515 1515 1516 1515 1515 1514 1514 1513 1512 1512 1511 1510 1510 1510 1510 1509 1509 1508 1508 1508 1508 1507 1507 1507 1507 1507 1507 1506 1506 1505 1504 1504 1504 1503 1502 1501 1500 1499 1498 1497 1496 1496 1495 1495 1495 1496 1496 1496 1496 1496 1496 1496 1496 1497 1497
1529 1529 1527 1526 1525 1524 1524 1523 1522 1521 1521 1520 1519 1518 1518 1517 1517 1516 1516 1515 1515 1514 1514 1515 1515 1515 1514 1514 1514 1514 1514 1514 1514 1514 1513 1513 1513 1512 1511 1511 1510 1509 1509 1508 1508 1508 1508 1508 1507 1507 1507 1506 1506 1506 1507 1507 1506 1506 1506 1505 1505 1505 1505 1505 1504 1503 1502 1501 1500 1499 1499 1498 1498 1498 1498 1498 1498 1498 1498 1498 1499 1499 1499 1500 1500
1530 1529 1528 1527 1525 1524 1524 1523 1522 1521 1520 1519 1518 1517 1516 1515 1515 1515 1514 1514 1513 1513 1513 1513 1513 1514 1513 1512 1512 1512 1512 1512 1512 1512 1512 1512 1511 1510 1510 1510 1509 1508 1508 1507 1507 1506 1507 1507 1506 1505 1505 1505 1505 1505 1506 1506 1506 1506 1506 1506 1505 1505 1505 1505 1505 1505 1504 1504 1503 1503 1502 1502 1501 1501 1501 1501 1501 1501 1501 1501 1502 1502 1503 1503 1503
1530 1529 1528 1527 1526 1525 1524 1522 1521 1521 1519 1518 1518 1516 1515 1514 1513 1513 1512 1512 1512 1512 1512 1511 1511 1512 1512 1511 1510 1510 1510 1510 1511 1511 1511 1511 1510 1509 1509 1509 1508 1507 1506 1506 1506 1505 1505 1506 1505 1505 1504 1504 1504 1504 1505 1505 1505 1505 1506 1506 1506 1505 1505 1505 1505 1505 1505 1506 1505 1505 1505 1505 1504 1504 1504 1504 1504 1504 1504 1504 1505 1505 1505 1506 1506
1530 1529 1528 1527 1526 1524 1523 1522 1521 1520 1519 1518 1517 1516 1515 1514 1513 1512 1511 1510 1510 1510 1510 1510 1510 1510 1510 1510 1509 1508 1508 1509 1509 1509 1509 1509 1509 1508 1508 1507 1506 1505 1505 1505 1504 1504 1504 1504 1504 1504 1504 1504 1504 1503 1504 1504 1504 1504 1505 1505 1505 1505 1505 1505 1505 1506 1506 1507 1507 1506 1506 1506 1506 1506 1506 1506 1506 1506 1506 1506 1507 1507 1508 1508 1509
1530 1529 1528 1526 1525 1524 1523 1521 1520 1519 1518 1517 1516 1515 1514 1513 1512 1511 1510 1509 1508 1508 1508 1508 1508 1508 1508 1508 1508 1507 1507 1507 1507 1507 1508 1508 1507 1507 1506 1505 1504 1504 1503 1503 1503 1503 1502 1502 1503 1503 1503 1503 1503 1503 1503 1503 1504 1504 1504 1504 1504 1505 1505 1505 1505 1506 1506 1507 1507 1507 1507 1507 1508 1508 1508 1508 1508 1508 1508 1509 1509 1509 1510 1510 1510
1529 1529 1527 1526 1524 1523 1522 1521 1519 1518 1517 1516 1515 1514 1513 1512 1511 1510 1509 1508 1507 1506 1505 1505 1505 1505 1505 1505 1505 1505 1506 1506 1507 1507 1506 1506 1505 1505 1504 1503 1502 1502 1502 1501 1501 1501 1501 1501 1501 1501 1501 1502 1502 1502 1502 1502 1503 1503 1503 1503 1503 1503 1503 1504 1505 1506 1507 1507 1508 1508 1509 1509 1509 1509 1509 1510 1510 1510 1510 1510 1511 1511 1511 1512 1512
1529 1528 1527 1525 1524 1523 1521 1520 1519 1518 1517 1515 1514 1513 1512 1511 1510 1509 1508 1507 1506 1505 1504 1503 1503 1502 1502 1502 1503 1503 1503 1504 1505 1506 1505 1504 1503 1503 1501 1501 1500 1500 1500 1500 1500 1500 1500 1499 1500 1500 1500 1500 1501 1501 1501 1501 1502 1502 1502 1501 1502 1502 1502 1503 1504 1505 1506 1507 1508 1509 1509 1509 1510 1510 1510 1511 1511 1511 1511 1512 1512 1512 1513 1513 1513
1528 1527 1526 1525 1523 1522 1521 1519 1518 1517 1516 1515 1513 1512 1511 1510 1509 1508 1507 1505 1505 1504 1503 1502 1502 1501 1500 1500 1500 1500 1500 1499 1501 1503 1504 1503 1502 1500 1499 1498 1498 1498 1498 1498 1498 1498 1498 1498 1498 1498 1498 1498 1499 1500 1500 1500 1501 1501 1500 1500 1501 1501 1502 1503 1503 1504 1505 1507 1509 1509 1509 1510 1510 1511 1511 1512 1512 1512 1512 1512 1513 1513 1513 1514 1514
1527 1526 1525 1524 1523 1521 1520 1519 1517 1516 1515 1513 1512 1511 1510 1509 1508 1507 1505 1504 1503 1502 1501 1500 1500 1499 1498 1498 1498 1498 1497 1496 1497 1498 1500 1501 1500 1498 1496 1496 1496 1496 1496 1496 1496 1496 1496 1496 1496 1496 1497 1497 1497 1498 1499 1499 1499 1499 1499 1499 1500 1501 1501 1502 1503 1504 1505 1507 1508 1509 1510 1510 1511 1511 1512 1512 1513 1513 1513 1513 1513 1514 1514 1514 1514